RH
24 21 21 21 21 23 23 23 31 47 75 76 83 87 84 79 78 80 79 82 86 89 81 80 87 89 89 87 88 80 80 89 82 90 94 95 88 92 89 90 87 97 95
37 43 36 23 26 24 25 24 23 29 67 68 72 72 74 78 74 77 82 83 85 87 88 84 86 88 87 89 88 83 86 83 82 79 79 94 97 94 89 89 91 95 96
43 41 46 34 24 26 27 21 21 27 58 70 74 73 78 84 86 84 83 84 84 87 88 85 85 90 87 91 91 82 78 79 86 72 65 86 75 80 87 93 88 94 95
45 51 56 52 26 28 27 24 22 24 48 70 75 80 80 80 78 78 77 81 84 87 88 86 86 90 90 90 93 84 76 71 82 84 64 65 62 64 86 90 93 87 90
57 66 67 46 21 24 29 28 24 24 34 75 72 74 77 70 71 77 82 83 85 87 88 89 86 90 91 90 93 94 84 74 68 74 74 70 68 73 75 82 95 96 93
80 84 72 68 39 29 33 30 26 24 32 70 74 77 78 74 75 81 85 88 88 89 90 89 88 87 88 90 92 91 86 82 75 71 66 68 70 66 70 76 73 86 91
85 87 83 86 79 71 29 29 24 23 36 65 74 77 76 76 78 82 81 88 94 94 93 92 90 90 89 91 93 94 91 85 83 80 77 71 68 62 66 67 75 81 83
84 88 83 86 88 87 78 37 27 29 43 62 76 77 77 77 74 78 72 80 83 84 88 91 89 89 91 92 93 94 93 89 92 88 89 85 75 69 66 67 73 89 98
94 90 84 84 88 89 89 93 66 45 50 66 78 79 79 81 80 78 78 80 81 86 89 92 92 89 91 88 91 94 95 94 94 94 92 90 84 80 75 71 68 75 93
94 95 92 87 85 88 90 91 92 95 94 83 79 79 80 85 85 86 84 81 80 85 91 93 92 89 92 90 94 94 94 95 96 95 94 93 88 86 84 84 82 78 85
94 95 96 86 84 85 89 89 90 91 93 93 96 91 90 90 89 89 87 86 89 89 90 92 94 94 94 96 97 96 96 96 96 95 94 94 90 90 88 93 89 87 87
96 95 94 88 87 89 88 87 88 91 89 88 92 95 96 97 97 95 97 96 96 97 98 95 94 94 93 95 97 97 97 97 98 97 96 94 89 93 92 93 93 94 90
95 96 99 96 96 90 88 85 86 87 86 83 91 94 95 95 96 96 92 94 95 98 99 98 98 95 91 92 96 95 96 96 94 94 96 92 93 95 94 94 93 94 94
97 99 98 98 97 94 89 84 87 87 87 88 94 94 95 95 94 94 96 98 97 98 98 97 98 98 93 94 95 96 95 92 90 87 89 90 91 86 87 89 92 90 94
87 96 98 98 99 98 93 86 85 88 88 89 88 91 90 90 91 92 92 95 99 99 98 99 98 96 96 93 94 90 92 90 96 97 96 96 98 100 99 98 98 98 98
85 89 97 98 96 88 83 82 85 84 84 85 86 84 83 83 89 89 91 93 95 98 99 99 98 98 99 100 100 99 94 93 96 95 95 92 99 98 100 100 100 100 95
78 87 92 97 94 87 82 78 77 75 76 80 80 83 84 84 85 85 86 91 96 95 98 99 99 99 95 100 100 100 92 86 86 93 95 97 98 100 97 99 100 100 100
72 73 75 77 77 86 81 71 71 73 75 78 78 79 84 84 86 86 91 92 94 95 95 96 96 98 96 100 100 100 89 91 95 97 98 99 100 100 100 100 100 100 100
66 66 66 66 68 74 74 70 68 71 74 80 81 80 83 82 86 91 91 92 93 93 94 95 93 96 96 97 98 99 99 100 100 99 99 99 100 100 98 100 100 100 100
61 64 63 63 66 69 69 72 71 72 78 78 81 78 82 83 89 89 90 89 88 90 90 91 95 96 94 96 97 98 100 100 100 100 100 99 100 100 99 96 99 100 100
62 62 62 66 66 68 67 72 73 77 75 72 75 78 80 82 86 86 86 86 88 87 92 93 94 95 95 95 96 98 99 100 100 100 100 100 98 98 97 99 100 100 100
63 63 65 66 65 67 70 70 79 73 69 71 73 76 81 82 81 85 86 86 87 90 93 94 94 93 95 94 94 97 98 99 99 100 99 100 97 96 96 98 96 95 96
65 63 65 66 66 67 71 76 75 73 69 71 73 75 74 80 87 91 90 89 90 93 96 94 95 95 94 95 93 93 95 97 97 97 96 93 92 94 96 94 93 94 97
73 64 66 68 72 70 70 70 71 72 68 72 72 72 78 79 84 83 86 89 92 94 95 96 97 97 97 96 96 97 96 93 95 96 96 96 95 94 94 94 95 95 94
84 75 71 72 76 73 73 66 67 68 71 73 74 76 74 76 79 86 90 91 96 94 94 96 96 97 98 97 92 93 96 97 97 95 95 96 95 95 95 95 95 94 93
76 84 79 73 76 75 77 77 74 72 74 75 77 83 77 78 75 77 84 81 84 84 87 88 92 95 89 86 87 88 88 84 83 92 95 96 96 96 96 95 96 95 95
Wind_Speed
26 24 27 23 20 21 20 20 14 16 13 13 13 13 14 13 11 11 15 14 13 14 14 10 12 12 10 11 12 9 12 6 9 7 4 3 3 5 6 5 6 6 6
27 25 24 25 21 21 21 20 18 15 17 14 14 13 13 12 12 11 12 14 15 16 14 14 12 13 11 12 13 13 7 4 10 6 6 3 2 4 6 6 7 8 6
28 32 25 23 24 21 20 21 20 15 18 20 12 10 10 6 10 11 11 15 17 16 15 17 14 13 11 10 12 14 15 9 9 12 6 5 6 5 5 8 7 9 6
31 31 31 26 23 24 19 21 20 18 17 19 16 18 15 15 13 15 14 13 17 16 16 16 16 14 10 11 11 11 13 12 11 8 8 3 6 5 4 4 7 9 10
31 35 28 28 23 23 17 19 19 18 17 19 20 19 19 15 11 11 15 15 15 16 17 16 18 15 11 12 12 12 13 12 11 11 10 8 5 3 2 4 5 6 8
29 27 26 25 16 16 17 18 17 19 16 20 23 23 23 17 12 14 13 12 13 12 16 16 17 16 15 15 13 14 17 14 12 11 11 10 9 9 5 3 6 8 7
25 22 25 25 23 14 17 16 17 19 17 21 22 22 20 19 19 17 14 14 12 11 15 17 17 15 15 14 13 13 14 16 13 14 11 11 11 7 8 8 5 5 4
24 26 27 25 23 22 14 11 14 15 15 19 20 20 20 13 14 16 14 12 12 14 17 16 16 16 15 14 14 10 10 13 11 14 10 8 9 10 10 10 9 4 4
24 25 26 28 25 24 20 16 1 8 11 15 15 17 17 16 14 15 13 11 13 10 13 14 15 16 15 16 14 10 11 11 11 11 11 8 8 9 10 10 10 10 6
25 24 22 27 24 21 19 22 18 14 11 0 12 13 14 12 10 10 13 16 14 14 13 14 14 15 15 15 14 10 11 12 9 8 11 10 7 9 9 10 9 9 9
23 21 21 24 23 21 21 19 17 16 14 13 8 7 7 7 9 9 10 10 10 12 12 14 14 14 15 13 12 11 12 12 11 10 11 11 11 8 8 7 8 8 8
21 21 22 24 25 23 21 20 17 16 13 14 14 13 13 7 2 5 6 7 7 6 6 8 10 12 13 13 13 12 11 13 12 11 11 11 9 11 9 7 10 8 9
22 21 22 24 21 20 19 18 17 16 16 19 18 13 17 10 11 5 7 9 10 8 8 4 4 8 13 15 13 13 11 11 10 10 11 11 11 10 8 8 8 8 7
19 19 19 20 18 20 20 21 20 18 16 19 18 14 18 14 10 9 8 3 4 7 5 10 10 9 11 11 11 12 11 11 10 11 12 11 10 12 10 11 11 10 10
19 19 20 18 18 19 20 21 21 21 20 19 16 15 14 13 12 14 12 10 3 5 8 8 8 9 9 7 10 10 9 11 9 8 7 6 6 7 6 4 4 5 7
18 19 18 17 17 19 21 21 17 18 15 15 16 16 15 12 11 12 12 12 11 6 4 6 8 8 5 9 11 9 9 9 8 8 7 6 8 8 10 9 9 10 9
20 17 18 17 16 18 16 16 17 16 17 16 15 16 15 15 14 13 13 11 9 7 8 2 2 4 6 8 12 9 5 7 8 7 5 4 3 5 5 6 5 7 10
20 19 15 15 16 15 16 15 15 16 16 17 17 16 15 14 13 12 12 11 9 10 7 10 11 1 10 6 4 8 5 5 5 4 4 4 4 2 3 3 4 3 3
17 16 16 16 15 16 15 15 16 16 16 17 18 17 15 14 13 13 12 10 10 8 10 8 11 11 9 20 15 4 5 5 4 3 2 2 4 3 6 4 3 2 2
15 17 17 15 15 17 16 15 16 16 16 15 14 14 14 13 13 13 12 10 8 9 8 9 9 14 11 17 17 10 3 5 4 3 3 7 1 5 7 4 4 2 3
16 16 15 14 15 17 16 16 16 17 15 14 13 14 15 14 13 12 11 11 10 9 9 10 10 10 13 13 19 15 3 4 4 3 3 3 5 4 5 3 3 3 3
15 16 13 13 14 16 15 16 16 15 14 13 14 15 14 11 11 13 11 12 11 10 10 9 8 7 9 17 21 20 16 9 5 5 4 6 11 13 10 8 12 9 5
13 13 13 13 14 15 16 16 16 14 13 13 13 13 13 13 12 12 12 10 11 9 9 8 7 7 7 8 17 21 21 19 12 8 14 16 14 14 13 17 14 8 4
12 12 13 13 14 14 15 14 13 13 12 12 11 10 11 12 12 9 9 10 10 9 8 8 8 7 8 8 7 6 6 14 10 9 8 9 9 12 10 8 10 7 5
9 11 11 12 13 13 13 14 14 13 12 11 10 10 9 10 9 11 11 10 12 12 8 8 8 7 8 9 11 9 6 5 7 7 6 7 7 7 7 7 8 7 6
9 9 10 11 12 12 12 13 13 13 12 10 9 9 8 7 7 7 7 17 19 23 24 21 13 8 15 17 17 16 14 13 7 7 7 7 7 8 7 7 7 7 8
Wind_Direction
302 293 287 279 261 261 260 257 233 221 203 195 192 189 197 193 200 194 189 198 191 187 192 184 177 179 179 184 185 186 174 164 163 129 122 97 183 190 191 187 200 185 197
319 308 296 274 265 251 253 251 243 222 205 200 197 202 195 200 197 191 189 193 197 188 189 185 183 184 183 186 186 182 173 152 178 160 160 173 155 219 214 202 202 198 186
321 308 305 274 259 245 242 251 256 235 208 205 191 187 187 171 192 189 190 197 196 193 192 192 185 184 185 183 187 190 187 173 191 182 159 168 212 168 185 213 209 193 195
326 318 312 286 250 249 231 243 244 239 217 199 190 185 193 188 199 195 192 190 189 193 190 194 189 182 180 182 183 194 195 191 185 196 215 201 142 194 177 204 208 208 205
331 326 313 299 258 249 225 233 238 234 218 197 198 192 199 206 187 189 189 187 190 194 190 191 192 184 182 182 179 183 198 199 195 199 192 203 185 152 146 174 185 204 207
328 330 342 333 301 255 232 230 229 224 207 198 202 196 202 198 188 183 188 184 186 189 192 190 194 188 187 186 182 186 197 199 203 202 205 205 201 205 196 193 194 206 208
337 336 346 343 336 312 239 230 224 230 201 196 198 199 202 197 200 187 188 180 180 185 192 189 193 191 186 183 181 185 194 198 200 202 207 213 221 224 219 224 202 205 181
343 340 351 348 344 347 354 234 223 216 193 192 196 194 197 201 201 193 189 188 195 195 184 192 193 193 182 180 179 183 191 197 200 201 203 209 218 220 219 220 212 199 194
349 350 355 349 353 350 351 3 192 208 204 203 192 192 194 201 203 194 194 188 187 185 187 189 187 187 180 185 180 182 183 188 189 194 197 204 212 227 229 226 218 221 211
346 358 358 352 349 352 353 9 18 35 41 162 202 188 192 190 183 177 184 183 188 183 179 185 186 188 184 184 179 181 187 188 191 190 192 201 208 215 225 221 224 223 226
351 354 353 357 354 354 5 9 11 24 35 28 19 132 135 160 174 181 187 181 175 188 183 188 186 189 184 175 178 180 181 185 185 186 192 202 202 210 217 211 214 216 217
354 350 357 2 356 358 1 10 9 20 28 38 29 43 52 44 102 160 156 136 137 134 167 207 193 187 179 176 177 175 182 187 188 186 194 207 207 213 206 207 215 219 223
357 354 357 5 350 353 359 6 12 14 23 32 27 28 40 32 31 355 189 170 168 156 140 149 193 206 195 181 174 175 177 184 193 191 199 206 203 208 209 213 220 221 226
357 355 355 352 349 357 358 4 7 11 19 32 27 19 30 28 7 4 10 133 110 87 110 201 198 206 203 191 177 175 175 186 199 203 207 206 205 218 220 229 228 234 237
1 358 352 349 349 359 360 6 5 8 12 21 16 21 35 31 14 15 4 20 84 169 188 196 195 189 192 181 174 167 178 193 191 193 193 193 189 202 215 214 234 237 239
358 353 351 355 356 355 2 4 0 9 10 17 10 16 26 25 20 15 15 18 17 357 181 190 179 188 179 168 177 158 181 190 194 199 199 204 209 227 231 235 248 257 256
352 355 351 348 354 357 1 1 4 1 15 12 9 13 14 19 15 16 21 18 10 359 24 27 186 184 168 180 155 161 168 204 216 205 188 200 206 222 244 244 257 258 256
348 352 350 352 357 356 356 2 8 14 18 15 11 12 13 17 16 15 10 8 9 20 23 25 7 312 43 13 155 157 196 194 208 193 189 203 224 221 247 264 268 263 271
348 347 345 350 358 4 3 5 10 17 20 15 11 9 8 9 12 15 9 2 16 24 39 33 33 26 33 19 9 248 177 183 151 110 69 247 225 191 196 210 221 244 276
353 349 347 351 2 5 5 11 11 17 21 14 9 11 10 11 13 12 8 6 21 35 41 44 35 36 24 16 2 346 225 157 136 90 68 31 346 178 181 211 202 179 336
355 354 352 354 2 3 7 14 11 13 9 10 13 17 17 15 13 13 16 15 24 39 42 46 38 30 28 19 13 10 288 157 136 118 74 29 46 110 137 139 144 126 122
358 359 354 358 3 6 6 13 10 3 7 13 18 20 20 19 19 22 18 21 25 36 37 38 42 27 24 26 26 33 49 44 94 87 65 60 66 69 67 79 88 93 94
358 357 354 358 8 9 13 10 358 359 12 22 21 21 26 28 27 30 29 28 25 28 29 31 28 22 17 18 23 43 53 72 76 62 72 66 55 57 60 53 51 58 64
355 354 354 3 10 12 13 9 1 1 21 26 26 22 26 30 33 32 38 40 33 31 29 27 23 18 21 22 18 27 35 67 66 67 67 68 65 60 56 47 40 40 42
359 354 355 359 3 7 13 13 12 15 24 26 26 20 24 27 40 46 40 40 40 42 38 29 31 24 28 28 40 44 48 53 75 84 54 58 50 50 42 53 57 47 55
2 358 357 0 359 5 8 2 5 14 18 25 19 21 22 22 31 34 51 50 51 44 40 42 41 36 42 40 44 49 56 59 61 69 73 63 58 60 55 56 54 63 58